Location: Highland Meadows Observing Site
(48.4428°N, 114.5461°W)
Time: 04:27:42
(UTC-06:00)

Amateur Radio Satellites - All Passes

Search period start: 25 June 2016 03:57
Search period end: 26 June 2016 03:57
Location: Highland Meadows Observing Site, 48.4428°N, 114.5461°W

Satellite Date Start Highest point End Downlink Frequencies (MHz)
Time Altitude Azimuth
AIST 1 25 Jun 04:04:13 04:05:48 12° 62° (ENE) 04:07:23
KKS-1 25 Jun 04:04:29 04:08:47 52° 70° (ENE) 04:13:06 437.445
Cosmos 2504 25 Jun 04:19:21 04:26:38 30° 280° (W) 04:33:48 435.465 / 435.565
BEESAT 3 25 Jun 04:25:19 04:28:52 33° 119° (ESE) 04:32:27 437.485
GONETS M04 25 Jun 04:36:56 04:42:08 17° 50° (NE) 04:47:20
CUBESAT XI-V 25 Jun 04:43:23 04:46:30 18° 60° (ENE) 04:49:37 437.345
AO-7 25 Jun 04:45:39 04:53:21 38° 97° (E) 05:00:59 29.400- 29.500
STARS 25 Jun 04:47:35 04:51:56 74° 73° (ENE) 04:56:18 437.465
BEESAT 2 25 Jun 04:55:00 04:58:42 38° 120° (ESE) 05:02:24 435.950
PCSat 25 Jun 04:56:10 05:01:34 68° 307° (NW) 05:07:00 145.827
Gurwin Techsat 1B 25 Jun 04:56:25 05:01:15 36° 295° (WNW) 05:06:05 435.225
MOZHAYETS 4 25 Jun 05:02:06 05:06:36 53° 260° (W) 05:11:11
Oscar 19 25 Jun 05:13:11 05:15:49 14° 306° (NW) 05:18:26 437.125/150
HORYU 2 25 Jun 05:18:56 05:20:53 13° 88° (E) 05:22:50 437.375
Cosmos 2499 25 Jun 05:20:53 05:27:11 21° 53° (NE) 05:33:19 435.465 / 435.565
ITAMSAT 1 25 Jun 05:25:06 05:30:09 50° 292° (WNW) 05:35:11 435.822/435.867
AO-85 25 Jun 05:31:22 05:34:18 16° 19° (NNE) 05:37:07 145.980
O/OREOS (USA 219) 25 Jun 05:34:45 05:39:01 41° 303° (WNW) 05:43:17 437.305
AIST 1 25 Jun 05:39:46 05:44:04 83° 261° (W) 05:48:19
KKS-1 25 Jun 05:42:30 05:45:39 19° 268° (W) 05:48:50 437.445
BEESAT 3 25 Jun 06:02:58 06:06:33 33° 318° (NW) 06:10:11 437.485
STRAND 1 25 Jun 06:06:58 06:09:11 13° 52° (NE) 06:11:24 437.568
CUBESAT XI-V 25 Jun 06:18:41 06:23:23 69° 258° (WSW) 06:28:06 437.345
NOAA 18 25 Jun 06:26:05 06:27:53 11° 85° (E) 06:29:40 137.9125
STARS 25 Jun 06:26:43 06:28:49 13° 271° (W) 06:30:56 437.465
GONETS M04 25 Jun 06:32:25 06:41:06 64° 75° (ENE) 06:49:44
BEESAT 2 25 Jun 06:33:02 06:36:36 30° 319° (NW) 06:40:11 435.950
AO-7 25 Jun 06:38:18 06:46:29 60° 298° (WNW) 06:54:38 29.400- 29.500
NOAA 15 25 Jun 06:39:09 06:42:47 19° 90° (E) 06:46:22 137.62
AIST 2 25 Jun 06:41:59 06:45:36 30° 118° (ESE) 06:49:15 435.215
PCSat 25 Jun 06:42:07 06:45:59 19° 330° (NNW) 06:49:53 145.827
HORYU 2 25 Jun 06:53:31 06:58:02 82° 285° (WNW) 07:02:32 437.375
LilacSat-2 25 Jun 06:58:02 07:00:22 15° 90° (E) 07:02:41 437.200
Cubesat XI-IV 25 Jun 07:01:45 07:05:52 22° 91° (E) 07:09:58 437.490
AO-85 25 Jun 07:11:26 07:16:01 46° 44° (NE) 07:20:11 145.980
Cosmos 2499 25 Jun 07:13:08 07:22:05 75° 78° (ENE) 07:30:35 435.465 / 435.565
BRITE-PL 25 Jun 07:16:57 07:20:46 33° 96° (E) 07:24:31 437.365/2234.400
CUSAT 1 25 Jun 07:18:28 07:22:55 17° 82° (E) 07:27:03 437.405
CUTE-I 25 Jun 07:36:47 07:41:54 42° 98° (E) 07:46:59 437.470
STRAND 1 25 Jun 07:42:21 07:47:27 70° 72° (ENE) 07:52:37 437.568
BEESAT 3 25 Jun 07:44:40 07:45:25 10° 341° (NNW) 07:46:10 437.485
DOVE 4 25 Jun 07:52:54 07:55:52 18° 92° (E) 07:58:54 437.250
PRISM 25 Jun 07:54:27 07:57:02 16° 60° (ENE) 07:59:36 437.425
NOAA 18 25 Jun 08:03:56 08:09:30 73° 104° (ESE) 08:15:03 137.9125
GOMX 1 25 Jun 08:10:11 08:14:17 54° 100° (E) 08:18:26 467.674
BEESAT 2 25 Jun 08:15:19 08:15:40 10° 342° (NNW) 08:16:02 435.950
NOAA 15 25 Jun 08:17:50 08:23:05 70° 288° (WNW) 08:28:18 137.62
HO-68 25 Jun 08:18:10 08:22:39 17° 86° (E) 08:27:08 435.675
AIST 2 25 Jun 08:20:08 08:24:00 38° 317° (NW) 08:27:55 435.215
CUTE 1.7 + AOD 2 25 Jun 08:25:34 08:26:31 11° 86° (E) 08:27:28 437.475
GONETS M04 25 Jun 08:29:55 08:37:23 34° 277° (W) 08:44:53
PCSat 25 Jun 08:30:33 08:31:41 11° 356° (N) 08:32:50 145.827
LilacSat-2 25 Jun 08:31:12 08:34:58 51° 288° (WNW) 08:38:44 437.200
HORYU 2 25 Jun 08:32:04 08:33:52 12° 305° (NW) 08:35:40 437.375
AO-7 25 Jun 08:32:19 08:37:39 19° 321° (NW) 08:42:57 29.400- 29.500
Cubesat XI-IV 25 Jun 08:41:03 08:46:22 62° 290° (WNW) 08:51:40 437.490
DANDE 25 Jun 08:43:33 08:51:03 38° 88° (E) 08:58:10 436.750
AO-85 25 Jun 08:52:22 08:56:15 27° 245° (WSW) 08:59:50 145.980
BRITE-PL 25 Jun 08:55:42 08:59:13 26° 295° (WNW) 09:02:39 437.365/2234.400
CUSAT 1 25 Jun 08:56:22 09:04:15 74° 98° (E) 09:10:57 437.405
Cosmos 2499 25 Jun 09:07:11 09:14:23 29° 280° (W) 09:21:21 435.465 / 435.565
CINEMA 3 25 Jun 09:15:42 09:19:53 39° 98° (E) 09:24:14 145.822/145.860
CUTE-I 25 Jun 09:17:04 09:21:50 33° 297° (WNW) 09:26:36 437.470
STRAND 1 25 Jun 09:23:41 09:27:10 18° 271° (W) 09:30:40 437.568
AAUSAT CUBESAT 2 25 Jun 09:25:04 09:28:02 19° 91° (E) 09:30:59 437.432
PRISM 25 Jun 09:27:46 09:31:54 63° 258° (WSW) 09:36:02 437.425
DOVE 4 25 Jun 09:29:47 09:33:52 50° 289° (WNW) 09:38:06 437.250
CANX-2 25 Jun 09:37:54 09:42:12 65° 101° (ESE) 09:46:28 2200.000
CUBEBUG 2 25 Jun 09:38:47 09:42:28 24° 93° (E) 09:46:13 437.445
NOAA 18 25 Jun 09:45:32 09:49:38 22° 303° (WNW) 09:53:45 137.9125
ANTELSAT 25 Jun 09:49:16 09:52:14 18° 60° (ENE) 09:55:15 437.575/2403.000
GOMX 1 25 Jun 09:49:18 09:52:03 17° 298° (WNW) 09:54:50 467.674
COMPASS 1 25 Jun 09:54:36 09:58:40 45° 99° (E) 10:02:41 437.405
CUTE 1.7 + AOD 2 25 Jun 09:58:40 10:03:00 88° 282° (WNW) 10:07:17 437.475
NOAA 15 25 Jun 09:59:36 10:01:57 13° 308° (NW) 10:04:18 137.62
AIST 2 25 Jun 10:02:01 10:03:37 12° 339° (NNW) 10:05:15 435.215
HO-68 25 Jun 10:04:14 10:11:29 81° 107° (ESE) 10:18:42 435.675
SEEDS 25 Jun 10:09:37 10:13:54 89° 90° (E) 10:18:09 437.485
DELFI C3 25 Jun 10:10:35 10:10:51 10° 87° (E) 10:11:08 145.870
M-CUBED/EXP-1 PRIME 25 Jun 10:12:59 10:16:11 26° 102° (ESE) 10:19:35 437.505
PCSat 25 Jun 10:14:25 10:17:35 15° 23° (NNE) 10:20:43 145.827
PHONESAT 2.4 25 Jun 10:21:27 10:23:15 15° 166° (SSE) 10:25:03 2401.200-2431.200
ZACube-1 25 Jun 10:21:33 10:25:31 30° 95° (E) 10:29:32 437.345
Cubesat XI-IV 25 Jun 10:23:25 10:25:25 12° 310° (NW) 10:27:25 437.490
DANDE 25 Jun 10:25:20 10:33:39 61° 286° (WNW) 10:41:25 436.750
UWE-3 25 Jun 10:33:43 10:38:11 56° 100° (E) 10:42:44 435.000/436.395/437.385
Oscar 11 25 Jun 10:38:47 10:42:59 44° 98° (E) 10:47:09 145.826/435.025
CUSAT 1 25 Jun 10:40:23 10:46:47 28° 295° (WNW) 10:52:24 437.405
TIGRISAT 25 Jun 10:40:33 10:44:41 50° 71° (ENE) 10:48:56 435.000
FUNcube-1 25 Jun 10:41:02 10:45:21 43° 98° (E) 10:49:41 145.935
UNISAT 6 25 Jun 10:44:18 10:48:31 58° 72° (ENE) 10:52:52 437.425
ISS 25 Jun 10:45:19 10:47:31 17° 138° (SE) 10:49:44 145.825
CINEMA 3 25 Jun 10:53:13 10:56:54 26° 294° (WNW) 11:00:41 145.822/145.860
AAUSAT CUBESAT 2 25 Jun 10:59:45 11:03:48 47° 289° (WNW) 11:07:48 437.432
BEESAT 3 25 Jun 11:01:56 11:04:23 16° 29° (NNE) 11:06:51 437.485
AUBIESAT-1 25 Jun 11:10:58 11:14:44 87° 289° (WNW) 11:18:47 437.475
CANX-2 25 Jun 11:14:54 11:17:35 16° 300° (WNW) 11:20:16 2200.000
CUBEBUG 2 25 Jun 11:14:58 11:19:16 44° 290° (WNW) 11:23:39 437.445
ANTELSAT 25 Jun 11:24:19 11:28:32 57° 259° (W) 11:32:53 437.575/2403.000
COMPASS 1 25 Jun 11:30:47 11:33:58 21° 297° (WNW) 11:37:08 437.405
BEESAT 2 25 Jun 11:32:16 11:34:57 17° 30° (NNE) 11:37:38 435.950
RS-15 25 Jun 11:34:35 11:41:37 19° 95° (E) 11:48:51 29.354- 29.394
CUTE 1.7 + AOD 2 25 Jun 11:36:29 11:38:10 12° 303° (WNW) 11:39:50 437.475
DELFI C3 25 Jun 11:42:15 11:46:18 83° 284° (WNW) 11:50:17 145.870
BUGSAT 1 25 Jun 11:44:25 11:47:24 20° 63° (ENE) 11:50:24 437.445
NANOSAT C BR1 25 Jun 11:44:55 11:48:53 44° 70° (ENE) 11:52:53 145.865
QB50P1 25 Jun 11:45:41 11:49:42 47° 70° (ENE) 11:53:45 145.935-145.965
SEEDS 25 Jun 11:47:12 11:48:57 12° 302° (WNW) 11:50:43 437.485
M-CUBED/EXP-1 PRIME 25 Jun 11:47:30 11:50:44 30° 298° (WNW) 11:54:13 437.505
POPSAT HIP 1 25 Jun 11:48:31 11:52:33 49° 71° (ENE) 11:56:37 437.405
HO-68 25 Jun 11:52:47 11:58:30 26° 307° (NW) 12:04:13 435.675
Cosmos 2491 25 Jun 11:53:33 12:01:25 36° 65° (ENE) 12:09:14 435.465 / 435.565
YUBILEINY 25 Jun 11:54:34 11:54:56 10° 66° (ENE) 11:55:17 435.215
PHONESAT 2.4 25 Jun 11:56:59 11:59:15 19° 183° (S) 12:01:30 2401.200-2431.200
PCSat 25 Jun 11:57:10 12:02:25 45° 47° (NE) 12:07:36 145.827
ZACube-1 25 Jun 11:57:46 12:01:50 35° 293° (WNW) 12:05:58 437.345
QB50P2 25 Jun 11:59:44 12:03:53 69° 73° (ENE) 12:08:06 145.880/145.840
POLYITAN 1 25 Jun 12:02:20 12:06:30 70° 74° (ENE) 12:10:43 437.675
HUMSAT D 25 Jun 12:06:48 12:11:09 85° 100° (E) 12:15:29 437.325/437.525
DUCHIFAT 1 25 Jun 12:07:07 12:11:15 70° 73° (ENE) 12:15:26 145.980
JAS-2 25 Jun 12:07:53 12:14:31 35° 62° (ENE) 12:20:41 435.910
UWE-3 25 Jun 12:11:00 12:14:17 20° 298° (WNW) 12:17:38 435.000/436.395/437.385
DANDE 25 Jun 12:12:51 12:18:00 17° 307° (NW) 12:22:53 436.750
VELOX 1 25 Jun 12:15:03 12:17:13 13° 88° (E) 12:19:22 145.980
Oscar 11 25 Jun 12:15:27 12:18:52 23° 297° (WNW) 12:22:17 145.826/435.025
CUBEBUG 1 25 Jun 12:16:27 12:18:56 15° 89° (E) 12:21:24 437.445
FUNcube-1 25 Jun 12:17:44 12:21:23 25° 296° (WNW) 12:25:05 145.935
TIGRISAT 25 Jun 12:18:40 12:21:42 19° 269° (W) 12:24:48 435.000
ISS 25 Jun 12:20:18 12:23:34 81° 156° (SSE) 12:26:51 145.825
UNISAT 6 25 Jun 12:22:56 12:25:40 16° 271° (W) 12:28:26 437.425
O/OREOS (USA 219) 25 Jun 12:23:04 12:25:53 16° 44° (NE) 12:28:41 437.305
ESTCUBE 1 25 Jun 12:34:51 12:38:56 32° 96° (E) 12:42:59 437.505/2401.250
BEESAT 3 25 Jun 12:38:49 12:42:47 71° 50° (NE) 12:46:44 437.485
AUBIESAT-1 25 Jun 12:47:38 12:48:45 11° 307° (NW) 12:49:52 437.475
AISAT 25 Jun 12:54:04 12:58:04 33° 97° (E) 13:02:02 437.250
Gurwin Techsat 1B 25 Jun 13:04:15 13:07:15 15° 54° (NE) 13:10:16 435.225
BEESAT 2 25 Jun 13:09:24 13:13:26 81° 51° (NE) 13:17:25 435.950
UKube-1 25 Jun 13:14:05 13:17:59 32° 97° (E) 13:21:50 .
Oscar 19 25 Jun 13:14:12 13:18:47 34° 64° (ENE) 13:23:23 437.125/150
BUGSAT 1 25 Jun 13:18:43 13:22:32 42° 261° (W) 13:26:23 437.445
50 SAT 25 Jun 13:19:20 13:23:03 65° 102° (ESE) 13:26:43 437.505
DELFI C3 25 Jun 13:19:53 13:20:28 10° 303° (WNW) 13:21:03 145.870
Cosmos 2504 25 Jun 13:21:27 13:23:51 11° 67° (ENE) 13:26:17 435.465 / 435.565
AIST 2 25 Jun 13:21:38 13:24:18 16° 28° (NNE) 13:26:56 435.215
NANOSAT C BR1 25 Jun 13:21:43 13:24:50 20° 268° (W) 13:27:59 145.865
SPROUT 25 Jun 13:22:40 13:26:25 29° 95° (E) 13:30:09 437.525
QB50P1 25 Jun 13:22:44 13:25:44 19° 268° (W) 13:28:47 145.935-145.965
POPSAT HIP 1 25 Jun 13:25:43 13:28:37 18° 269° (W) 13:31:34 437.405
DX 1 25 Jun 13:26:54 13:31:10 52° 101° (E) 13:35:23 434.975-435.025
ITAMSAT 1 25 Jun 13:32:52 13:34:07 11° 50° (NE) 13:35:24 435.822/435.867
PHONESAT 2.4 25 Jun 13:34:10 13:35:11 11° 200° (SSW) 13:36:12 2401.200-2431.200
QB50P2 25 Jun 13:38:08 13:40:11 13° 271° (W) 13:42:15 145.880/145.840
RS-15 25 Jun 13:40:17 13:51:36 69° 119° (ESE) 14:03:34 29.354- 29.394
PCSat 25 Jun 13:40:48 13:45:44 36° 247° (WSW) 13:50:38 145.827
POLYITAN 1 25 Jun 13:40:52 13:42:49 13° 271° (W) 13:44:47 437.675
YUBILEINY 25 Jun 13:41:10 13:49:26 51° 89° (E) 13:57:47 435.215
HUMSAT D 25 Jun 13:44:07 13:46:10 13° 302° (WNW) 13:48:13 437.325/437.525
DUCHIFAT 1 25 Jun 13:45:31 13:47:27 13° 272° (W) 13:49:24 145.980
VELOX 1 25 Jun 13:49:49 13:54:13 74° 287° (WNW) 13:58:35 145.980
Cosmos 2491 25 Jun 13:50:16 13:58:48 62° 268° (W) 14:07:20 435.465 / 435.565
CUBEBUG 1 25 Jun 13:51:22 13:55:40 64° 287° (WNW) 13:59:55 437.445
JAS-2 25 Jun 13:51:39 13:59:15 62° 259° (W) 14:06:16 435.910
ISS 25 Jun 13:57:01 14:00:11 46° 356° (N) 14:03:22 145.825
AO-7 25 Jun 13:59:22 14:05:14 22° 42° (NE) 14:11:06 29.400- 29.500
O/OREOS (USA 219) 25 Jun 14:01:26 14:05:56 86° 245° (WSW) 14:10:25 437.305
ESTCUBE 1 25 Jun 14:11:43 14:15:43 31° 294° (WNW) 14:19:40 437.505/2401.250
BEESAT 3 25 Jun 14:17:47 14:19:58 14° 248° (WSW) 14:22:09 437.485
AISAT 25 Jun 14:30:40 14:34:29 30° 295° (WNW) 14:38:17 437.250
Gurwin Techsat 1B 25 Jun 14:41:06 14:46:25 82° 73° (ENE) 14:51:46 435.225
BEESAT 2 25 Jun 14:48:53 14:50:41 13° 250° (WSW) 14:52:29 435.950
UKube-1 25 Jun 14:50:13 14:53:59 30° 295° (WNW) 14:57:43 .
Oscar 19 25 Jun 14:53:17 14:58:03 38° 263° (W) 15:02:52 437.125/150
50 SAT 25 Jun 14:54:32 14:56:15 13° 300° (WNW) 14:57:56 437.505
TISAT 1 25 Jun 14:55:52 15:00:04 72° 102° (ESE) 15:04:16 437.305
SPROUT 25 Jun 14:58:34 15:02:23 32° 293° (WNW) 15:06:11 437.525
AIST 2 25 Jun 14:59:22 15:03:32 68° 50° (NE) 15:07:40 435.215
DX 1 25 Jun 15:03:53 15:07:01 20° 299° (WNW) 15:10:08 434.975-435.025
Cosmos 2504 25 Jun 15:07:15 15:15:04 55° 90° (E) 15:23:25 435.465 / 435.565
ITAMSAT 1 25 Jun 15:07:26 15:12:31 57° 69° (ENE) 15:17:40 435.822/435.867
SWISSCUBE 25 Jun 15:18:00 15:22:10 28° 95° (E) 15:26:18 437.505
VELOX 1 25 Jun 15:28:51 15:29:54 11° 305° (NW) 15:30:56 145.980
ISS 25 Jun 15:33:40 15:36:55 65° 15° (NNE) 15:40:11 145.825
YUBILEINY 25 Jun 15:38:15 15:46:26 43° 291° (WNW) 15:54:43 435.215
ITUPSAT 1 25 Jun 15:42:08 15:46:44 41° 98° (E) 15:51:16 437.325
JAS-2 25 Jun 15:42:22 15:45:28 13° 278° (W) 15:48:29 435.910
BEESAT 25 Jun 15:43:27 15:48:03 43° 99° (E) 15:52:37 436.000
O/OREOS (USA 219) 25 Jun 15:43:42 15:44:34 10° 264° (W) 15:45:25 437.305
AO-7 25 Jun 15:48:23 15:56:39 70° 65° (ENE) 16:04:58 29.400- 29.500
Cosmos 2491 25 Jun 15:50:03 15:53:44 13° 291° (WNW) 15:57:25 435.465 / 435.565
RS-15 25 Jun 15:53:27 16:04:48 52° 327° (NNW) 16:16:43 29.354- 29.394
HORYU 2 25 Jun 16:20:02 16:23:13 20° 61° (ENE) 16:26:26 437.375
Gurwin Techsat 1B 25 Jun 16:23:53 16:27:02 16° 272° (W) 16:30:13 435.225
TISAT 1 25 Jun 16:32:53 16:35:13 15° 301° (WNW) 16:37:32 437.305
STARS 25 Jun 16:36:36 16:36:42 10° 86° (E) 16:36:47 437.465
AIST 2 25 Jun 16:38:56 16:41:33 16° 248° (WSW) 16:44:10 435.215
ITAMSAT 1 25 Jun 16:48:18 16:52:22 23° 268° (W) 16:56:27 435.822/435.867
MOZHAYETS 4 25 Jun 16:53:29 16:57:30 28° 94° (E) 17:01:29
SWISSCUBE 25 Jun 16:55:35 17:00:04 40° 293° (WNW) 17:04:31 437.505
BRITE-PL 25 Jun 16:57:11 16:57:56 10° 55° (NE) 16:58:41 437.365/2234.400
Cosmos 2504 25 Jun 17:01:14 17:08:48 40° 293° (WNW) 17:16:53 435.465 / 435.565
ISS 25 Jun 17:10:16 17:13:15 33° 215° (SW) 17:16:13 145.825
ITUPSAT 1 25 Jun 17:20:18 17:24:25 28° 297° (WNW) 17:28:29 437.325
BEESAT 25 Jun 17:21:38 17:25:39 27° 297° (WNW) 17:29:39 436.000
CUTE-I 25 Jun 17:24:51 17:28:19 18° 55° (NE) 17:31:48 437.470
KKS-1 25 Jun 17:27:52 17:32:18 62° 102° (ESE) 17:36:42 437.445
SO-50 25 Jun 17:38:11 17:42:48 44° 120° (ESE) 17:47:26 436.795
AO-7 25 Jun 17:42:53 17:50:03 31° 266° (W) 17:57:19 29.400- 29.500
YUBILEINY 25 Jun 17:44:08 17:46:19 11° 319° (NW) 17:48:29 435.215
LilacSat-2 25 Jun 17:44:20 17:46:20 14° 61° (ENE) 17:48:21 437.200
GOMX 1 25 Jun 17:46:53 17:48:51 13° 58° (ENE) 17:50:48 467.674
GONETS M04 25 Jun 17:47:34 17:51:24 14° 70° (ENE) 17:55:14
NOAA 18 25 Jun 17:54:33 17:59:23 33° 62° (ENE) 18:04:14 137.9125
HORYU 2 25 Jun 17:55:04 17:59:25 55° 259° (W) 18:03:49 437.375
NOAA 15 25 Jun 18:02:22 18:07:21 43° 66° (ENE) 18:12:20 137.62
Cosmos 2499 25 Jun 18:07:42 18:10:14 12° 67° (ENE) 18:12:47 435.465 / 435.565
STARS 25 Jun 18:09:20 18:13:46 85° 107° (ESE) 18:18:10 437.465
RS-15 25 Jun 18:09:53 18:20:45 37° 0° (N) 18:31:53 29.354- 29.394
CUBESAT XI-V 25 Jun 18:12:02 18:15:42 23° 92° (E) 18:19:21 437.345
AIST 1 25 Jun 18:12:41 18:16:50 46° 94° (E) 18:20:58
Cubesat XI-IV 25 Jun 18:27:06 18:32:15 50° 68° (ENE) 18:37:26 437.490
MOZHAYETS 4 25 Jun 18:30:27 18:34:46 38° 292° (WNW) 18:39:02
BRITE-PL 25 Jun 18:30:36 18:35:39 64° 73° (ENE) 18:40:19 437.365/2234.400
HO-68 25 Jun 18:51:21 18:56:36 23° 50° (NE) 19:01:51 435.675
DOVE 4 25 Jun 19:02:00 19:05:43 28° 66° (ENE) 19:09:18 437.250
CUTE-I 25 Jun 19:02:20 19:07:41 86° 255° (WSW) 19:13:06 437.470
CANX-2 25 Jun 19:02:31 19:03:05 10° 55° (NE) 19:03:39 2200.000
Cosmos 2504 25 Jun 19:04:13 19:05:22 10° 321° (NW) 19:06:33 435.465 / 435.565
KKS-1 25 Jun 19:05:27 19:08:26 18° 300° (WNW) 19:11:25 437.445
LilacSat-2 25 Jun 19:16:27 19:20:11 61° 259° (W) 19:23:59 437.200
SO-50 25 Jun 19:18:51 19:23:24 37° 320° (NW) 19:27:56 436.795
DANDE 25 Jun 19:21:06 19:26:00 26° 60° (ENE) 19:29:53 436.750
CUTE 1.7 + AOD 2 25 Jun 19:21:22 19:23:35 14° 58° (ENE) 19:25:46 437.475
GOMX 1 25 Jun 19:21:43 19:26:24 90° 172° (S) 19:30:49 467.674
CUSAT 1 25 Jun 19:29:45 19:34:08 54° 73° (ENE) 19:37:28 437.405
SEEDS 25 Jun 19:31:44 19:33:41 13° 58° (ENE) 19:35:39 437.485
NOAA 18 25 Jun 19:34:44 19:39:55 43° 261° (W) 19:45:10 137.9125
GONETS M04 25 Jun 19:37:49 19:46:21 63° 93° (E) 19:54:54
NOAA 15 25 Jun 19:42:37 19:47:16 31° 265° (W) 19:51:56 137.62
STARS 25 Jun 19:47:18 19:49:30 14° 303° (WNW) 19:51:41 437.465
CUBESAT XI-V 25 Jun 19:48:53 19:53:20 46° 290° (WNW) 19:57:44 437.345
STRAND 1 25 Jun 19:50:04 19:53:32 18° 89° (E) 19:56:59 437.568
AIST 1 25 Jun 19:51:30 19:54:41 20° 292° (WNW) 19:57:53
Cosmos 2499 25 Jun 19:53:11 20:01:10 54° 90° (E) 20:09:39 435.465 / 435.565
Cubesat XI-IV 25 Jun 20:08:07 20:12:35 27° 267° (W) 20:17:06 437.490
BRITE-PL 25 Jun 20:11:00 20:14:29 18° 269° (W) 20:17:49 437.365/2234.400
AAUSAT CUBESAT 2 25 Jun 20:18:53 20:22:04 21° 63° (ENE) 20:25:15 437.432
CINEMA 3 25 Jun 20:21:11 20:25:14 52° 71° (ENE) 20:29:17 145.822/145.860
RS-15 25 Jun 20:24:46 20:36:42 53° 33° (NNE) 20:48:43 29.354- 29.394
AUBIESAT-1 25 Jun 20:27:48 20:30:17 20° 59° (ENE) 20:32:48 437.475
CANX-2 25 Jun 20:33:53 20:38:09 73° 74° (ENE) 20:42:28 2200.000
HO-68 25 Jun 20:36:14 20:43:24 86° 72° (ENE) 20:50:38 435.675
DOVE 4 25 Jun 20:39:28 20:43:23 32° 264° (W) 20:47:11 437.250
CUBEBUG 2 25 Jun 20:40:45 20:44:19 28° 66° (ENE) 20:47:59 437.445
CUTE-I 25 Jun 20:45:56 20:48:33 14° 274° (W) 20:51:09 437.470
COMPASS 1 25 Jun 20:48:37 20:52:40 49° 71° (ENE) 20:56:46 437.405
CUTE 1.7 + AOD 2 25 Jun 20:54:33 20:58:50 79° 258° (WSW) 21:03:09 437.475
DELFI C3 25 Jun 20:59:42 21:01:08 12° 58° (ENE) 21:02:34 145.870
SO-50 25 Jun 21:02:34 21:05:14 14° 343° (NNW) 21:07:52 436.795
M-CUBED/EXP-1 PRIME 25 Jun 21:03:26 21:06:40 62° 68° (ENE) 21:09:55 437.505
DANDE 25 Jun 21:03:47 21:09:15 45° 269° (W) 21:13:21 436.750
GOMX 1 25 Jun 21:03:50 21:05:05 11° 273° (W) 21:06:18 467.674
SEEDS 25 Jun 21:04:31 21:08:46 84° 259° (W) 21:13:04 437.485
PRISM 25 Jun 21:07:05 21:09:07 13° 89° (E) 21:11:08 437.425
CUSAT 1 25 Jun 21:13:50 21:15:15 12° 281° (WNW) 21:16:33 437.405
ZACube-1 25 Jun 21:21:01 21:24:49 34° 68° (ENE) 21:28:44 437.345
STRAND 1 25 Jun 21:28:05 21:33:15 71° 288° (WNW) 21:38:22 437.568
HUMSAT D 25 Jun 21:28:50 21:30:34 12° 57° (ENE) 21:32:18 437.325/437.525
UWE-3 25 Jun 21:34:19 21:38:28 68° 73° (ENE) 21:42:43 435.000/436.395/437.385
GONETS M04 25 Jun 21:35:59 21:43:45 35° 295° (WNW) 21:51:35
Oscar 11 25 Jun 21:36:49 21:41:02 54° 72° (ENE) 21:45:18 145.826/435.025
FUNcube-1 25 Jun 21:40:06 21:44:09 50° 71° (ENE) 21:48:19 145.935
Cosmos 2499 25 Jun 21:46:48 21:54:36 41° 293° (WNW) 22:02:52 435.465 / 435.565
AAUSAT CUBESAT 2 25 Jun 21:53:16 21:57:17 44° 262° (W) 22:01:21 437.432
CINEMA 3 25 Jun 22:00:06 22:02:44 16° 270° (W) 22:05:24 145.822/145.860
AUBIESAT-1 25 Jun 22:01:45 22:04:41 29° 257° (WSW) 22:07:39 437.475
CANX-2 25 Jun 22:12:32 22:14:32 13° 273° (W) 22:16:33 2200.000
CUBEBUG 2 25 Jun 22:17:11 22:20:55 31° 265° (W) 22:24:43 437.445
COMPASS 1 25 Jun 22:25:32 22:28:31 19° 269° (W) 22:31:31 437.405
HO-68 25 Jun 22:26:49 22:32:00 21° 271° (W) 22:37:14 435.675
DELFI C3 25 Jun 22:31:19 22:35:22 87° 263° (W) 22:39:27 145.870
RS-15 25 Jun 22:37:48 22:49:59 70° 240° (WSW) 23:02:06 29.354- 29.394
PRISM 25 Jun 22:40:48 22:44:54 65° 287° (WNW) 22:48:55 437.425
SO-50 25 Jun 22:45:52 22:47:46 12° 8° (N) 22:49:38 436.795
DX 1 25 Jun 22:53:38 22:54:37 11° 55° (NE) 22:55:36 434.975-435.025
ZACube-1 25 Jun 22:57:39 23:01:12 26° 266° (W) 23:04:48 437.345
HUMSAT D 25 Jun 23:01:22 23:05:32 87° 256° (WSW) 23:09:48 437.325/437.525
AO-85 25 Jun 23:08:20 23:13:24 43° 120° (ESE) 23:18:20 145.980
STRAND 1 25 Jun 23:09:15 23:11:31 13° 308° (NW) 23:13:48 437.568
ANTELSAT 25 Jun 23:12:17 23:16:01 24° 93° (E) 23:19:46 437.575/2403.000
UWE-3 25 Jun 23:13:24 23:15:28 13° 272° (W) 23:17:32 435.000/436.395/437.385
Oscar 11 25 Jun 23:14:34 23:17:31 18° 270° (W) 23:20:29 145.826/435.025
VELOX 1 25 Jun 23:15:32 23:18:47 20° 61° (ENE) 23:22:02 145.980
CUBEBUG 1 25 Jun 23:15:44 23:19:01 21° 62° (ENE) 23:22:17 437.445
FUNcube-1 25 Jun 23:17:50 23:20:44 18° 270° (W) 23:23:42 145.935
ESTCUBE 1 25 Jun 23:37:40 23:42:00 47° 70° (ENE) 23:46:23 437.505/2401.250
YUBILEINY 25 Jun 23:46:17 23:54:00 32° 63° (ENE) 00:01:41 435.215
Cosmos 2499 25 Jun 23:48:41 23:50:51 11° 320° (NW) 23:53:02 435.465 / 435.565
AISAT 25 Jun 23:54:46 23:59:00 47° 70° (ENE) 00:03:14 437.250
50 SAT 26 Jun 00:00:30 00:04:06 51° 72° (ENE) 00:07:45 437.505
TIGRISAT 26 Jun 00:04:19 00:08:55 68° 102° (ESE) 00:13:35 435.000
UNISAT 6 26 Jun 00:08:22 00:13:00 79° 104° (ESE) 00:17:41 437.425
UKube-1 26 Jun 00:11:55 00:16:01 44° 69° (ENE) 00:20:08 .
TISAT 1 26 Jun 00:18:42 00:20:02 11° 56° (ENE) 00:21:22 437.305
SPROUT 26 Jun 00:19:41 00:23:33 35° 68° (ENE) 00:27:27 437.525
DX 1 26 Jun 00:25:42 00:30:02 74° 74° (ENE) 00:34:24 434.975-435.025
SO-50 26 Jun 00:26:01 00:29:56 25° 32° (NNE) 00:33:45 436.795
ANTELSAT 26 Jun 00:48:31 00:52:55 45° 290° (WNW) 00:57:22 437.575/2403.000
AO-85 26 Jun 00:48:53 00:53:59 42° 318° (NW) 00:58:52 145.980
VELOX 1 26 Jun 00:50:36 00:54:55 52° 259° (W) 00:59:15 145.980
CUBEBUG 1 26 Jun 00:50:47 00:55:01 48° 260° (W) 00:59:15 437.445
RS-15 26 Jun 00:52:17 01:00:08 20° 264° (W) 01:07:59 29.354- 29.394
Cosmos 2504 26 Jun 00:55:03 01:02:33 29° 61° (ENE) 01:09:53 435.465 / 435.565
BUGSAT 1 26 Jun 00:57:01 01:00:03 20° 93° (E) 01:03:05 437.445
JAS-2 26 Jun 00:59:50 01:02:58 15° 84° (E) 01:05:56 435.910
Cosmos 2491 26 Jun 01:00:15 01:07:51 35° 83° (E) 01:15:24 435.465 / 435.565
NANOSAT C BR1 26 Jun 01:00:55 01:05:02 48° 99° (E) 01:09:09 145.865
QB50P1 26 Jun 01:02:05 01:06:15 52° 100° (E) 01:10:24 145.935-145.965
POPSAT HIP 1 26 Jun 01:04:58 01:09:10 55° 100° (E) 01:13:21 437.405
ESTCUBE 1 26 Jun 01:15:32 01:19:03 22° 268° (W) 01:22:36 437.505/2401.250
QB50P2 26 Jun 01:16:28 01:20:45 77° 103° (ESE) 01:25:01 145.880/145.840
ITUPSAT 1 26 Jun 01:18:10 01:20:04 12° 53° (NE) 01:21:59 437.325
BEESAT 26 Jun 01:19:01 01:21:03 13° 54° (NE) 01:23:04 436.000
POLYITAN 1 26 Jun 01:19:05 01:23:22 79° 103° (ESE) 01:27:39 437.675
DUCHIFAT 1 26 Jun 01:22:57 01:27:12 77° 103° (ESE) 01:31:26 145.980
AISAT 26 Jun 01:32:24 01:35:44 21° 268° (W) 01:39:03 437.250
50 SAT 26 Jun 01:36:05 01:38:07 14° 270° (W) 01:40:10 437.505
TIGRISAT 26 Jun 01:42:06 01:45:08 18° 300° (WNW) 01:48:12 435.000
YUBILEINY 26 Jun 01:42:50 01:51:36 71° 266° (W) 02:00:21 435.215
UNISAT 6 26 Jun 01:46:26 01:49:10 16° 301° (WNW) 01:51:55 437.425
UKube-1 26 Jun 01:48:57 01:52:16 21° 267° (W) 01:55:37 .
TISAT 1 26 Jun 01:50:50 01:55:00 86° 78° (ENE) 01:59:12 437.305
SPROUT 26 Jun 01:56:01 01:59:35 26° 266° (W) 02:03:09 437.525
DX 1 26 Jun 02:04:40 02:06:45 13° 271° (W) 02:08:50 434.975-435.025
SO-50 26 Jun 02:06:13 02:10:56 77° 234° (SW) 02:15:29 436.795
SWISSCUBE 26 Jun 02:27:47 02:32:24 49° 69° (ENE) 02:37:03 437.505
BUGSAT 1 26 Jun 02:31:46 02:35:38 43° 290° (WNW) 02:39:31 437.445
AO-85 26 Jun 02:32:36 02:35:45 16° 340° (NNW) 02:38:47 145.980
NANOSAT C BR1 26 Jun 02:37:21 02:40:29 20° 298° (WNW) 02:43:36 145.865
QB50P1 26 Jun 02:38:40 02:41:41 19° 298° (WNW) 02:44:43 145.935-145.965
POPSAT HIP 1 26 Jun 02:41:39 02:44:35 18° 299° (WNW) 02:47:32 437.405
JAS-2 26 Jun 02:43:08 02:49:07 87° 284° (WNW) 02:54:29 435.910
PCSat 26 Jun 02:44:40 02:48:02 17° 105° (ESE) 02:51:23 145.827
Cosmos 2504 26 Jun 02:48:03 02:57:00 81° 264° (W) 03:05:40 435.465 / 435.565
ITUPSAT 1 26 Jun 02:52:17 02:57:04 73° 73° (ENE) 03:01:54 437.325
BEESAT 26 Jun 02:53:16 02:58:02 76° 72° (ENE) 03:02:51 436.000
QB50P2 26 Jun 02:53:47 02:56:00 14° 301° (WNW) 02:58:14 145.880/145.840
Gurwin Techsat 1B 26 Jun 02:54:01 02:58:21 25° 92° (E) 03:02:38 435.225
Cosmos 2491 26 Jun 02:55:31 03:04:12 62° 285° (WNW) 03:12:53 435.465 / 435.565
KKS-1 26 Jun 02:55:47 02:57:49 13° 56° (NE) 02:59:51 437.445
POLYITAN 1 26 Jun 02:56:26 02:58:37 14° 302° (WNW) 03:00:48 437.675
DUCHIFAT 1 26 Jun 03:00:09 03:02:20 14° 302° (WNW) 03:04:32 145.980
Oscar 19 26 Jun 03:00:24 03:05:28 57° 101° (E) 03:10:29 437.125/150
ITAMSAT 1 26 Jun 03:17:49 03:20:45 15° 88° (E) 03:23:40 435.822/435.867
TISAT 1 26 Jun 03:30:33 03:31:16 10° 273° (W) 03:31:59 437.305
STARS 26 Jun 03:35:11 03:37:52 16° 59° (ENE) 03:40:33 437.465
YUBILEINY 26 Jun 03:41:52 03:46:43 16° 288° (WNW) 03:51:34 435.215
AO-7 26 Jun 03:47:26 03:52:25 17° 86° (E) 03:57:22 29.400- 29.500
SO-50 26 Jun 03:49:12 03:50:33 11° 253° (WSW) 03:51:54 436.795
